Weather History for KENW - February, 2013

Change the Weather History Date:

Saturday, February 16, 2013

  Actual Average Record
Temperature  
Mean Temperature 13 °F -  
Max Temperature 18 °F 32 °F 53 °F (1981)
Min Temperature 8 °F 16 °F -11 °F (1958)
Degree Days  
Heating Degree Days 52    
Moisture  
Dew Point 1 °F    
Average Humidity 60    
Maximum Humidity 73    
Minimum Humidity 45    
Precipitation  
Precipitation 0.00 in - - ()
Sea Level Pressure  
Sea Level Pressure 30.18 in    
Wind  
Wind Speed 9 mph (WNW)    
Max Wind Speed 15 mph    
Max Gust Speed -    
Visibility 10 miles    
Events      
Averages and records for this station are not official NWS values.
T = Trace of Precipitation, MM = Missing Value Source: NWS Daily Summary

Daily Weather History Graph

Daily Weather History Graph

Search for Another Location

Airport or City:

Trip Planner

Search our weather history database for the weather conditions in past years. The results will help you decide how hot, cold, wet, or windy it might be!

Date:

Astronomy

Feb. 16, 2013 Rise Set
Actual Time 6:46 AM CST 5:25 PM CST
Civil Twilight 6:17 AM CST 5:54 PM CST
Nautical Twilight 5:45 AM CST 6:27 PM CST
Astronomical Twilight 5:12 AM CST 6:59 PM CST
Moon 9:49 AM CST (2/16) No Moon Set
Length of Visible Light 11h 36m
Length of Day
10h 38m
Waxing Crescent, 39% of the Moon is Illuminated
Feb 16
Waxing Crescent
Feb 17
First Quarter
Feb 25
Full
Mar 4
Last Quarter
Mar 11
New

Hourly Weather History & Observations

Time (CST) Temp. Windchill Dew Point Humidity Pressure Visibility Wind Dir Wind Speed Gust Speed Precip Events Conditions
12:53 AM 15.1 °F 3.3 °F 3.9 °F 61% 30.19 in 10.0 mi WNW 9.2 mph - N/A   Clear
1:53 AM 12.9 °F -1.6 °F 3.0 °F 65% 30.18 in 10.0 mi WNW 12.7 mph - N/A   Clear
2:53 AM 12.0 °F 0.5 °F 1.9 °F 64% 30.17 in 10.0 mi WNW 8.1 mph - N/A   Clear
3:53 AM 10.9 °F -1.8 °F 1.9 °F 67% 30.17 in 10.0 mi WNW 9.2 mph - N/A   Clear
4:53 AM 10.0 °F -2.9 °F 1.9 °F 70% 30.17 in 10.0 mi WNW 9.2 mph - N/A   Clear
5:53 AM 9.0 °F -3.2 °F 1.9 °F 73% 30.17 in 10.0 mi WNW 8.1 mph - N/A   Clear
6:53 AM 9.0 °F -2.2 °F 1.0 °F 70% 30.18 in 10.0 mi WNW 6.9 mph - N/A   Clear
7:53 AM 10.9 °F -2.6 °F 1.9 °F 67% 30.18 in 10.0 mi NW 10.4 mph - N/A   Overcast
8:53 AM 12.9 °F 1.6 °F 3.0 °F 65% 30.19 in 10.0 mi NW 8.1 mph - N/A   Overcast
9:53 AM 15.1 °F 2.5 °F 3.0 °F 59% 30.19 in 10.0 mi WNW 10.4 mph - N/A   Overcast
10:53 AM 16.0 °F 4.4 °F 3.9 °F 59% 30.19 in 10.0 mi NW 9.2 mph - N/A   Overcast
11:53 AM 17.1 °F 3.6 °F 3.9 °F 56% 30.17 in 10.0 mi WNW 12.7 mph - N/A   Overcast
12:53 PM 17.1 °F 2.5 °F 1.0 °F 50% 30.16 in 10.0 mi NW 15.0 mph - N/A   Overcast
1:53 PM 18.0 °F 4.8 °F 1.0 °F 48% 30.16 in 10.0 mi WNW 12.7 mph - N/A   Scattered Clouds
2:53 PM 18.0 °F 7.7 °F -0.0 °F 45% 30.15 in 10.0 mi NW 8.1 mph - N/A   Clear
3:53 PM 17.1 °F 5.8 °F -0.0 °F 47% 30.16 in 10.0 mi WNW 9.2 mph - N/A   Scattered Clouds
4:53 PM 16.0 °F 5.3 °F -0.0 °F 49% 30.18 in 10.0 mi NW 8.1 mph - N/A   Mostly Cloudy
5:53 PM 15.1 °F 3.3 °F 1.0 °F 54% 30.19 in 10.0 mi NW 9.2 mph - N/A   Overcast
6:53 PM 12.9 °F 5.2 °F 1.0 °F 59% 30.21 in 10.0 mi NW 4.6 mph - N/A   Clear
7:53 PM 10.9 °F 4.7 °F -0.0 °F 61% 30.22 in 10.0 mi WNW 3.5 mph - N/A   Clear
8:53 PM 10.0 °F - -0.0 °F 64% 30.22 in 10.0 mi Calm Calm - N/A   Clear
9:53 PM 8.1 °F 1.4 °F -0.9 °F 67% 30.22 in 10.0 mi West 3.5 mph - N/A   Clear
10:53 PM 8.1 °F -2.0 °F -0.9 °F 67% 30.21 in 10.0 mi West 5.8 mph - N/A   Clear
11:53 PM 8.1 °F - -2.0 °F 64% 30.21 in 10.0 mi Calm Calm - N/A   Clear